STARLINK-32537, 61923

Orbit data source: Space-Track

STARLINK-32537, 61923 is a payload satellite owned by SpaceX/Seattle (US) in LEO that was launched on Mon, 11 Nov 2024 UTC via an FALCON 9 launch vehicle from the Air Force Eastern Test Range (AFETR). Payload-class satellites include a variety of spacecraft equipped with specific instruments for various scientific and technological missions. These include communications satellites like Starlink; space stations such as the ISS; scientific satellites like the Hubble; Earth observation satellites from companies like Planet Labs, Umbra, and HawkEye 360; GPS; miniature CubeSats for education and research; and military/defense satellites.

Loading next visibility...
Identifier
61923, 2024-207M
Orbit
LEO
Country
Flag of USUS
Related business
Manufacturer
SpaceX/Seattle
Mission
Operational Commercial Communications
Bus & Motor
STARLINK V2M, Unknown motor
Mass
730 kg wet, ~700 kg dry
Launch date (UTC)
2024-11-11 (2 years ago)
Launch vehicle
FALCON 9
Launch site
Air Force Eastern Test Range (AFETR)
Object type
Payload
Rocket body
Debris
Shape & HBR
Box + 2 Pan, 17.7 m
Radar Cross Section
33.884 m², Large (>1 m²)

Expand to show TLE details & history
Last TLE update: 16 hours ago

TLE from 16 hours ago
0 STARLINK-32537
1 61923U 24207M   26263.06286463  .00011010  00000-0  40893-3 0  9990
2 61923  43.0013 267.9373 0001019 281.7396  78.3341 15.27587183104400
Epoch: 2026-09-20T01:30Z
TLE epoch observation values (Epoch: 2026-09-20T01:30:31.504Z)
Latitude
-0.00002°
Longitude
-113.65642°
Altitude
482.662 km
Speed
7.626 km/s
True Right ascension
17h 51m 44s
True Declination
0° 00' 00"
Sunlit
Object was in daylight at epoch
Visualization orbit readout
Latitude
Unknown
Longitude
Unknown
Altitude
Unknown
Speed
Unknown
Apparent Right ascension
Unknown
Apparent Declination
Unknown
Sunlit
N/A
Visualization observer readout
Local Sidereal Time
10:30:19
Azimuth
Unknown
Elevation
Unknown
Doppler factor
Unknown
Orbital elements
Apogee altitude
485.672 km
Perigee altitude
484.273 km
Semi-major axis
6,863.11 km
Eccentricity
0.0001
Inclination
43.0013°
RAAN
267.9373°
Arg. of periapsis
281.7396°
True anomaly
78.34554°
Mean anomaly
78.3341°
Eccentric anomaly
78.33982°
Mean motion
3.81735 °/min
Orbital period
94.31 mins
BSTAR
0.00040893
Loading maneuver chart data...
Computing Atmospheric mass density...
Loading historical data...
Loading historical data...
Loading historical data...
Loading historical data...
Loading historical data...
Loading historical data...
Loading historical data...

Documentation

Showing up to 5 results
|